Weather History for The Dalles, OR

Change the Weather History Date:

Sunday, October 28, 2012

  Actual Average Record
Temperature  
Mean Temperature 56 °F -  
Max Temperature 64 °F 58 °F 75 °F (2003)
Min Temperature 48 °F 38 °F 23 °F (1948)
Degree Days  
Heating Degree Days 10    
Growing Degree Days 6 (Base 50)    
Moisture  
Dew Point 52 °F    
Average Humidity 89    
Maximum Humidity 100    
Minimum Humidity 64    
Precipitation  
Precipitation 0.30 in - - ()
Sea Level Pressure  
Sea Level Pressure 29.89 in    
Wind  
Wind Speed 3 mph (NNW)    
Max Wind Speed 16 mph    
Max Gust Speed 22 mph    
Visibility 6 miles    
Events Fog , Rain    
Averages and records for this station are not official NWS values.
T = Trace of Precipitation, MM = Missing Value Source: NWS Daily Summary

Daily Weather History Graph

Daily Weather History Graph

Search for Another Location

Airport:

Trip Planner

Search our weather history database for the weather conditions in past years. The results will help you decide how hot, cold, wet, or windy it might be!

Date:

Astronomy

Oct. 28, 2012 Rise Set
Actual Time 7:39 AM PDT 5:56 PM PDT
Civil Twilight 7:08 AM PDT 6:27 PM PDT
Nautical Twilight 6:33 AM PDT 7:02 PM PDT
Astronomical Twilight 5:59 AM PDT 7:36 PM PDT
Moon 5:17 PM PDT (10/28) 6:36 AM PDT (10/28)
Length of Visible Light 11h 18m
Length of Day
10h 16m
Waxing Gibbous, 99% of the Moon is Illuminated
Oct 28
Waxing Gibbous
Oct 29
Full
Nov 6
Last Quarter
Nov 13
New
Nov 20
First Quarter

Hourly Weather History & Observations

Time (PDT) Temp. Dew Point Humidity Pressure Visibility Wind Dir Wind Speed Gust Speed Precip Events Conditions
12:53 AM 48.9 °F 46.0 °F 90% 29.90 in 10.0 mi Calm Calm - N/A   Overcast
1:53 AM 48.9 °F 46.9 °F 93% 29.91 in 7.0 mi Calm Calm - N/A   Overcast
2:13 AM 48.2 °F 46.4 °F 93% 29.90 in 8.0 mi Calm Calm - N/A   Overcast
2:53 AM 48.9 °F 46.9 °F 93% 29.90 in 7.0 mi Calm Calm - N/A   Overcast
3:53 AM 48.0 °F 45.0 °F 89% 29.90 in 9.0 mi Calm Calm - N/A   Mostly Cloudy
4:53 AM 48.0 °F 46.0 °F 93% 29.90 in 8.0 mi SE 3.5 mph - N/A   Scattered Clouds
5:53 AM 55.9 °F 51.1 °F 84% 29.90 in 10.0 mi ENE 5.8 mph - N/A   Partly Cloudy
6:53 AM 57.0 °F 52.0 °F 83% 29.92 in 10.0 mi North 4.6 mph - N/A   Overcast
7:53 AM 59.0 °F 52.0 °F 78% 29.91 in 10.0 mi WNW 12.7 mph - 0.00 in   Overcast
8:53 AM 61.0 °F 48.9 °F 64% 29.92 in 10.0 mi WNW 11.5 mph - N/A   Overcast
10:53 AM 62.1 °F 51.1 °F 67% 29.93 in 10.0 mi NW 16.1 mph 21.9 mph N/A   Clear
11:53 AM 62.1 °F 51.1 °F 67% 29.94 in 10.0 mi North - - N/A   Scattered Clouds
12:53 PM 62.1 °F 51.1 °F 67% 29.93 in 10.0 mi NW 8.1 mph - N/A   Overcast
1:53 PM 63.0 °F 52.0 °F 67% 29.92 in 10.0 mi WNW 11.5 mph - N/A   Overcast
2:53 PM 61.0 °F 52.0 °F 72% 29.91 in 10.0 mi West 9.2 mph - 0.00 in Rain Light Rain
3:53 PM 59.0 °F 54.0 °F 83% 29.91 in 6.0 mi Calm Calm - 0.02 in Rain Light Rain
4:53 PM 57.0 °F 54.0 °F 89% 29.90 in 10.0 mi SW 3.5 mph - 0.06 in Rain Light Rain
5:53 PM 55.9 °F 54.0 °F 93% 29.90 in 9.0 mi NNW 3.5 mph - 0.04 in Rain Light Rain
6:53 PM 55.9 °F 53.1 °F 90% 29.89 in 10.0 mi Calm Calm - 0.01 in Rain Light Rain
7:53 PM 55.0 °F 54.0 °F 96% 29.89 in 5.0 mi Calm Calm - 0.10 in Rain Light Rain
8:15 PM 55.4 °F 53.6 °F 94% 29.89 in 2.0 mi Calm Calm - 0.05 in Rain Rain
8:35 PM 55.4 °F 53.6 °F 94% 29.88 in 1.5 mi Calm Calm - 0.05 in Rain Light Rain
8:41 PM 55.4 °F 53.6 °F 94% 29.88 in 1.8 mi Calm Calm - 0.05 in   Overcast
8:53 PM 54.0 °F 53.1 °F 97% 29.88 in 1.0 mi Calm Calm - 0.05 in   Mostly Cloudy
9:00 PM 53.6 °F 53.6 °F 100% 29.88 in 0.8 mi Calm Calm - N/A   Overcast
9:08 PM 53.6 °F 53.6 °F 100% 29.88 in 2.0 mi Calm Calm - 0.00 in Rain Light Rain
9:16 PM 53.6 °F 53.6 °F 100% 29.88 in 5.0 mi NNW 3.5 mph - 0.00 in Rain Light Rain
9:53 PM 54.0 °F 53.1 °F 97% 29.88 in 4.0 mi Calm Calm - 0.02 in Rain Light Rain
10:17 PM 53.6 °F 53.6 °F 100% 29.88 in 2.5 mi Calm Calm - 0.00 in Rain Light Rain
10:29 PM 53.6 °F 53.6 °F 100% 29.88 in 1.5 mi Calm Calm - 0.00 in   Overcast
10:53 PM 54.0 °F 53.1 °F 97% 29.88 in 1.5 mi Calm Calm - 0.00 in   Mostly Cloudy
11:05 PM 53.6 °F 53.6 °F 100% 29.87 in 0.5 mi East 3.5 mph - N/A Fog Fog
11:14 PM 53.6 °F 53.6 °F 100% 29.88 in 1.0 mi Calm Calm - N/A   Overcast
11:17 PM 53.6 °F 53.6 °F 100% 29.88 in 2.0 mi Calm Calm - N/A   Overcast
11:39 PM 53.6 °F 51.8 °F 94% 29.87 in 0.8 mi North 3.5 mph - 0.00 in Rain Light Rain
11:51 PM 53.6 °F 51.8 °F 94% 29.86 in 1.0 mi Calm Calm - 0.00 in   Overcast
11:53 PM 54.0 °F 52.0 °F 93% 29.86 in 1.8 mi ENE 3.5 mph - 0.00 in   Overcast
11:55 PM 53.6 °F 51.8 °F 94% 29.86 in 2.5 mi Calm Calm - N/A   Overcast